BEIDOU-3 M11 (C25)

Last updated on Wed Aug 26 2026 00:04:16 GMT+0000 (Coordinated Universal Time)

1 43603U 18067B 26237.31185014 -.00000008 00000+0 00000+0 0 9998 2 43603 54.1776 178.6605 0005043 20.1618 339.8276 1.86227252 54430
UTC large
Height (km)
Speed (km/s)
/
Latitude / Longitude
Inclination (degrees)
Orbital Period (minutes)
Azimuth
Elevation
Range (km)
Doppler Factor

Next 0 passes for location: London (51.5072 / 0.1276)

No passes found over London.
BEIDOU-3 M11 (C25)